CZ-3C DEB, 39346

Orbit data source: Space-Track

CZ-3C DEB, 39346 is space debris in HEO originally from a launch on Sun, 31 Oct 2010 UTC launched from the Xichang Space Center, China (XSC). Debris objects in space refer to the collection of defunct objects orbiting the Earth. Examples of debris include non-operational satellites, rocket bodies, and fragments generated from explosions, collisions, or faulty payload assembly.

Loading next visibility...
Identifier
39346, 2010-057L
Orbit
HEO
Country
Flag of CNCN / PRC
Related business
Manufacturer
CALT
Mission
Spacecraft
Bus & Motor
Unknown
Mass
Unknown
Launch date (UTC)
2010-10-31 (15 years ago)
Launch vehicle
Unknown
Launch site
Xichang Space Center, China (XSC)
Object type
Payload
Rocket body
Debris
Shape & HBR
Unknown shape, 0.5 m
Radar Cross Section
Large (>1 m²)

Expand to show TLE details & history
Last TLE update: 1 day ago

TLE from 1 day ago
0 CZ-3C DEB
1 39346U 10057L   26067.30343015 -.00000110  00000-0  18266-2 0  9996
2 39346  20.2143 201.7275 7173373 323.0764   4.4244  2.17960195 98745
Epoch: 2026-03-08T07:16Z
TLE epoch observation values (Epoch: 2026-03-08T07:16:56.364Z)
Latitude
0.00005°
Longitude
-73.63853°
Altitude
1,350.144 km
Speed
9.342 km/s
True Right ascension
13h 26m 26s
True Declination
0° 00' 00"
Sunlit
Object was in full shadow at epoch
Visualization orbit readout
Latitude
Unknown
Longitude
Unknown
Altitude
Unknown
Speed
Unknown
Apparent Right ascension
Unknown
Apparent Declination
Unknown
Sunlit
N/A
Visualization observer readout
Local Sidereal Time
15:37:03
Azimuth
Unknown
Elevation
Unknown
Doppler factor
Unknown
Orbital elements
Apogee altitude
36,781.699 km
Perigee altitude
725.695 km
Semi-major axis
25,131.834 km
Eccentricity
0.71734
Inclination
20.2143°
RAAN
201.7275°
Arg. of periapsis
323.0764°
True anomaly
36.4139°
Mean anomaly
4.4244°
Eccentric anomaly
15.20156°
Mean motion
0.54476 °/min
Orbital period
660.84 mins
BSTAR
0.0018266
Loading maneuver chart data...
Computing Atmospheric mass density...
Loading historical data...
Loading historical data...
Loading historical data...
Loading historical data...
Loading historical data...
Loading historical data...
Loading historical data...

Documentation

Showing up to 5 results
|